Meteo pe oră la Allmend

Astăzi, 28 Ianuarie, Joi

Timp Temperatura Precipitaţii Vânt Presiune Umiditate
00:00 +2°C° 1 mm 2 m/s 679 mmHg 98%
01:00 +2°C° 1 mm 2 m/s 679 mmHg 98%
02:00 +3°C° 1.3 mm 2 m/s 679 mmHg 98%
03:00 +3°C° 1.3 mm 2 m/s 679 mmHg 98%
04:00 +3°C° 1.3 mm 2 m/s 678 mmHg 98%
05:00 +3°C° 1.4 mm 2 m/s 678 mmHg 98%
06:00 +3°C° 1.4 mm 2 m/s 678 mmHg 98%
07:00 +3°C° 1.4 mm 2 m/s 677 mmHg 98%
08:00 +2°C° 1.9 mm 3 m/s 677 mmHg 98%
09:00 +3°C° 1.9 mm 3 m/s 677 mmHg 98%
10:00 +3°C° 1.9 mm 3 m/s 677 mmHg 98%
11:00 +3°C° 1.6 mm 3 m/s 677 mmHg 98%
12:00 +4°C° 1.6 mm 3 m/s 677 mmHg 98%
13:00 +4°C° 1.6 mm 4 m/s 676 mmHg 98%
14:00 +4°C° 1.7 mm 4 m/s 676 mmHg 98%
15:00 +4°C° 1.7 mm 4 m/s 676 mmHg 98%
16:00 +4°C° 1.7 mm 4 m/s 676 mmHg 98%
17:00 +4°C° 1.3 mm 3 m/s 676 mmHg 97%
18:00 +4°C° 1.3 mm 3 m/s 677 mmHg 97%
19:00 +4°C° 1.3 mm 3 m/s 677 mmHg 97%
20:00 +4°C° 0.8 mm 3 m/s 677 mmHg 97%
21:00 +4°C° 0.8 mm 3 m/s 677 mmHg 97%
22:00 +4°C° 0.8 mm 3 m/s 677 mmHg 97%
23:00 +3°C° 0.2 mm 3 m/s 677 mmHg 96%

Mâine, 29 Ianuarie, Vineri

Timp Temperatura Precipitaţii Vânt Presiune Umiditate
00:00 +3°C° 0.2 mm 3 m/s 677 mmHg 95%
01:00 +4°C° 0.2 mm 2 m/s 676 mmHg 94%
02:00 +4°C° 0.2 mm 2 m/s 676 mmHg 94%
03:00 +4°C° 0.2 mm 2 m/s 675 mmHg 93%
04:00 +4°C° 0.2 mm 2 m/s 674 mmHg 93%
05:00 +4°C° 1.4 mm 2 m/s 673 mmHg 94%
06:00 +4°C° 1.4 mm 2 m/s 672 mmHg 95%
07:00 +3°C° 1.4 mm 3 m/s 672 mmHg 97%
08:00 +3°C° 4.6 mm 3 m/s 672 mmHg 97%
09:00 +3°C° 4.6 mm 3 m/s 672 mmHg 97%
10:00 +3°C° 4.6 mm 3 m/s 672 mmHg 98%
11:00 +3°C° 1.9 mm 3 m/s 673 mmHg 96%
12:00 +3°C° 1.9 mm 4 m/s 673 mmHg 95%
13:00 +3°C° 1.9 mm 4 m/s 674 mmHg 93%
14:00 +3°C° 0.3 mm 4 m/s 673 mmHg 94%
15:00 +3°C° 0.3 mm 4 m/s 673 mmHg 94%
16:00 +2°C° 0.3 mm 3 m/s 672 mmHg 94%
17:00 +1°C° 1.4 mm 4 m/s 673 mmHg 95%
18:00 +1°C° 1.4 mm 4 m/s 673 mmHg 95%
19:00 +1°C° 1.4 mm 5 m/s 673 mmHg 95%
20:00 +1°C° 1.2 mm 5 m/s 673 mmHg 95%
21:00 +1°C° 1.2 mm 4 m/s 673 mmHg 96%
22:00 0°C° 1.2 mm 4 m/s 674 mmHg 96%
23:00 0°C° 0.6 mm 4 m/s 674 mmHg 96%

Poimâine, 30 Ianuarie, Sâmbătă

Timp Temperatura Precipitaţii Vânt Presiune Umiditate
00:00 +1°C° 0.6 mm 3 m/s 675 mmHg 96%
01:00 +1°C° 0.6 mm 3 m/s 675 mmHg 96%
02:00 0°C° 0 mm 3 m/s 674 mmHg 93%
03:00 -1°C° 0 mm 3 m/s 674 mmHg 90%
04:00 -1°C° 0 mm 2 m/s 673 mmHg 87%
05:00 -1°C° 0 mm 2 m/s 672 mmHg 83%
06:00 -1°C° 0 mm 2 m/s 672 mmHg 79%
07:00 -1°C° 0 mm 2 m/s 671 mmHg 74%
08:00 +2°C° 0.1 mm 1 m/s 671 mmHg 77%
09:00 +3°C° 0.1 mm 1 m/s 670 mmHg 80%
10:00 +4°C° 0.1 mm 1 m/s 670 mmHg 83%
11:00 +4°C° 0.9 mm 1 m/s 669 mmHg 88%
12:00 +4°C° 0.9 mm 1 m/s 668 mmHg 93%
13:00 +4°C° 0.9 mm 1 m/s 667 mmHg 98%
14:00 +4°C° 1.4 mm 1 m/s 667 mmHg 98%
15:00 +3°C° 1.4 mm 2 m/s 667 mmHg 98%
16:00 +3°C° 1.4 mm 2 m/s 667 mmHg 98%
17:00 +3°C° 0.7 mm 2 m/s 667 mmHg 98%
18:00 +3°C° 0.7 mm 2 m/s 667 mmHg 97%
19:00 +3°C° 0.7 mm 1 m/s 667 mmHg 97%
20:00 +3°C° 0.5 mm 1 m/s 667 mmHg 97%
21:00 +3°C° 0.5 mm 1 m/s 667 mmHg 97%
22:00 +3°C° 0.5 mm 1 m/s 667 mmHg 97%
23:00 +3°C° 0.3 mm 1 m/s 667 mmHg 97%

31 Ianuarie, Duminică

Timp Temperatura Precipitaţii Vânt Presiune Umiditate
00:00 +3°C° 0.3 mm 1 m/s 668 mmHg 97%
01:00 +3°C° 0.3 mm 1 m/s 668 mmHg 97%
02:00 +2°C° 0.1 mm 1 m/s 667 mmHg 97%
03:00 +2°C° 0.1 mm 1 m/s 667 mmHg 97%
04:00 +2°C° 0.1 mm 1 m/s 667 mmHg 96%
05:00 +1°C° 0 mm 1 m/s 667 mmHg 94%
06:00 +1°C° 0 mm 1 m/s 667 mmHg 92%
07:00 0°C° 0 mm 1 m/s 667 mmHg 90%
08:00 +1°C° 0 mm 1 m/s 667 mmHg 89%
09:00 +2°C° 0 mm 1 m/s 668 mmHg 87%
10:00 +3°C° 0 mm 1 m/s 668 mmHg 86%
11:00 +4°C° 0 mm 1 m/s 668 mmHg 86%
12:00 +5°C° 0 mm 1 m/s 668 mmHg 87%
13:00 +5°C° 0 mm 1 m/s 668 mmHg 88%
14:00 +5°C° 0 mm 1 m/s 668 mmHg 89%
15:00 +5°C° 0 mm 1 m/s 668 mmHg 91%
16:00 +3°C° 0 mm 2 m/s 668 mmHg 92%
17:00 +3°C° 0.1 mm 2 m/s 668 mmHg 91%
18:00 +2°C° 0.1 mm 2 m/s 668 mmHg 89%
19:00 +2°C° 0.1 mm 2 m/s 668 mmHg 88%
20:00 +2°C° 0 mm 2 m/s 668 mmHg 88%
21:00 +2°C° 0 mm 2 m/s 667 mmHg 87%
22:00 +2°C° 0 mm 2 m/s 667 mmHg 87%
23:00 +2°C° 0.1 mm 2 m/s 667 mmHg 88%

1 Februarie, Luni

Timp Temperatura Precipitaţii Vânt Presiune Umiditate
00:00 +2°C° 0.1 mm 2 m/s 666 mmHg 88%
01:00 +3°C° 0.1 mm 1 m/s 666 mmHg 89%
02:00 +2°C° 0.9 mm 2 m/s 666 mmHg 91%
03:00 +2°C° 0.9 mm 2 m/s 666 mmHg 94%
04:00 +2°C° 0.9 mm 2 m/s 666 mmHg 96%
05:00 +2°C° 1.5 mm 2 m/s 666 mmHg 96%
06:00 +3°C° 1.5 mm 2 m/s 667 mmHg 96%
07:00 +2°C° 1.5 mm 3 m/s 667 mmHg 96%
08:00 +2°C° 2.3 mm 3 m/s 668 mmHg 97%
09:00 +2°C° 2.3 mm 3 m/s 668 mmHg 97%
10:00 +3°C° 2.3 mm 3 m/s 669 mmHg 97%
11:00 +3°C° 1.8 mm 3 m/s 669 mmHg 97%
12:00 +3°C° 1.8 mm 3 m/s 670 mmHg 97%
13:00 +3°C° 1.8 mm 3 m/s 670 mmHg 97%
14:00 +3°C° 1.8 mm 3 m/s 671 mmHg 97%
15:00 +3°C° 1.8 mm 3 m/s 672 mmHg 97%
16:00 +3°C° 1.8 mm 3 m/s 672 mmHg 97%
17:00 +3°C° 1.8 mm 3 m/s 673 mmHg 97%
18:00 +2°C° 1.8 mm 3 m/s 674 mmHg 97%
19:00 +3°C° 1.8 mm 2 m/s 675 mmHg 97%
20:00 +3°C° 0.7 mm 2 m/s 675 mmHg 96%
21:00 +3°C° 0.7 mm 2 m/s 676 mmHg 96%
22:00 +3°C° 0.7 mm 2 m/s 676 mmHg 95%
23:00 +3°C° 0.3 mm 2 m/s 676 mmHg 94%

2 Februarie, Marţi

Timp Temperatura Precipitaţii Vânt Presiune Umiditate
00:00 +3°C° 0.3 mm 2 m/s 677 mmHg 93%
01:00 +3°C° 0.3 mm 2 m/s 677 mmHg 93%
02:00 +3°C° 0.3 mm 2 m/s 677 mmHg 92%
03:00 +3°C° 0.3 mm 2 m/s 677 mmHg 92%
04:00 +4°C° 0.3 mm 2 m/s 676 mmHg 91%
05:00 +4°C° 1.3 mm 2 m/s 676 mmHg 93%
06:00 +4°C° 1.3 mm 2 m/s 676 mmHg 94%
07:00 +4°C° 1.3 mm 2 m/s 676 mmHg 96%
08:00 +4°C° 1.2 mm 3 m/s 677 mmHg 96%
09:00 +4°C° 1.2 mm 3 m/s 677 mmHg 96%
10:00 +4°C° 1.2 mm 3 m/s 677 mmHg 96%
11:00 +5°C° 0.3 mm 3 m/s 677 mmHg 96%
12:00 +5°C° 0.3 mm 3 m/s 677 mmHg 96%
13:00 +7°C° 0.3 mm 3 m/s 677 mmHg 95%
14:00 +7°C° 1.1 mm 3 m/s 677 mmHg 96%
15:00 +5°C° 1.1 mm 3 m/s 677 mmHg 97%
16:00 +6°C° 1.1 mm 2 m/s 676 mmHg 97%
17:00 +6°C° 0.9 mm 2 m/s 677 mmHg 97%
18:00 +6°C° 0.9 mm 2 m/s 677 mmHg 96%
19:00 +6°C° 0.9 mm 2 m/s 677 mmHg 96%
20:00 +6°C° 0.4 mm 2 m/s 677 mmHg 96%
21:00 +6°C° 0.4 mm 2 m/s 677 mmHg 95%
22:00 +6°C° 0.4 mm 2 m/s 677 mmHg 95%
23:00 +6°C° 0 mm 2 m/s 676 mmHg 93%
Arată mai mult

Formular de consimțământ

Meteoprog și furnizorii noștri de servicii pot stoca și accesa date personale, precum cookies, identificatori de dispozitiv sau alte tehnologii similare pe dispozitivul dumneavoastră și procesa astfel de date pentru a personaliza conținutul și reclamele, dar și pentru a oferi caracteristici de social media și pentru a analiza traficul.

  • Stocarea și/sau accesarea informațiilor pe dispozitivul dumneavoastră

    Cookies, identificatori de dispozitiv sau alte informații pot fi stocate sau accesate pe dispozitiv în scopurile indicate mai sus.

  • Reclame și conținut personalizat, evaluarea reclamelor și a conținutului, informații despre audiențe și dezvoltarea produselor

    Reclamele și conținutul pot fi personalizate pe baza unui profil. Pot fi adăugate date suplimentare pentru a personaliza mai bine reclamele și conținutul. Performanța reclamelor și conținutului poate fi măsurată. Pot fi obținute informații despre utilizatorii care au văzut reclamele și conținutul. Aceste date pot fi utilizate pentru a dezvolta sau îmbunătăți experiența utilizatorilor, sistemele și software-ul.

Dând clic pe ‘Sunt de acord’, permiteți utilizarea cookie-urilor menționate, a identificatorilor de dispozitiv, balizelor web sau altor tehnologii similare. Setările pot fi modificate din browser-ul dispozitivului dumneavoastră.

În anumite scopuri, interesele legitime pot prima asupra consimțământului. Puteți citi mai multe informații în acest sens în Politica privind Confidențialitatea Datelor și Cookie.